Location: Lac Lasalle
(46.0398°N, 74.1576°W)
Time: 18:33:34
(UTC-05:00)

AO-73 - Pass Details

Date: 16 December 2019
Orbit: 581 x 664 km, 97.6° (Epoch: 21 January)

Event Time Altitude Azimuth Distance (km) Brightness Sun altitude
Rises 17:20:19 0° 164° (SSE) 2,955 ? -11.3°
Reaches altitude 10° 17:22:33 10° 164° (SSE) 2,038 ? -11.7°
Maximum altitude 17:27:00 85° 76° (ENE) 644 ? -12.4°
Drops below altitude 10° 17:31:23 10° 348° (NNW) 2,005 ? -13.1°
Sets 17:33:33 0° 348° (NNW) 2,903 ? -13.5°
